Location: Kampong Paya Jaras Dalam
(3.1833°N, 101.5500°E)
Time: 05:05:50
(UTC+00:00)

GPS 2-15 Rocket1 - Pass Details

Date: 15 May 2026
Orbit: 606 x 651 km, 19.8° (Epoch: 7 June)

Event Time Altitude Azimuth Distance (km) Brightness Sun altitude
Exits shadow 21:31:04 62° 289° (WNW) 683 3.0 -22.2°
Maximum altitude 21:31:48 89° 202° (SSW) 611 2.9 -22.0°
Drops below altitude 10° 21:36:22 10° 111° (ESE) 1,945 6.2 -21.0°
Sets 21:38:42 0° 111° (ESE) 2,845 7.2 -20.4°
